Regional Weather Roundup
Issued by NWS

Home | Current Version | Previous Version | Graphics & Text | Print | Product List | Glossary On
Versions: 1 2 3 4 5 6 7 8 9 10 11 12 13 14 15 16 17 18 19 20 21 22 23 24 25 26 27 28 29 30 31 32 33 34 35 36 37 38 39 40 41 42 43 44 45 46 47 48 49 50
000
ASUS45 KBOU 191210
RWRCO

WEATHER ROUNDUP FOR COLORADO
NATIONAL WEATHER SERVICE DENVER/BOULDER CO
500 AM MST FRI JAN 19 2018

NOTE: "FAIR" INDICATES FEW OR NO CLOUDS BELOW 12000 FEET WITH NO
SIGNIFICANT WEATHER AND/OR OBSTRUCTIONS TO VISIBILITY.

COZ001>005-013-030-031-191300-
...NORTHWEST COLORADO...

CITY           SKY/WX    TMP DP  RH WIND       PRES   REMARKS
CRAIG          FAIR      18  11  74 CALM      29.98F
HAYDEN         FAIR     N/A N/A N/A E15       29.99F
MEEKER         FAIR      25  18  74 CALM      29.99F
RABBIT EARS PA FAIR      28  19  69 SW12G17   30.05F WCI  18
STEAMBOAT SPGS FAIR      12  10  91 CALM      30.00S
WALDEN         FAIR      34  14  44 S13G20    29.96F WCI  25
$$

COZ006>008-011-191300-
...WEST CENTRAL VALLEYS...

CITY           SKY/WX    TMP DP  RH WIND       PRES   REMARKS
GRAND JUNCTION FAIR      25  18  74 CALM      30.05F
MONTROSE       FAIR      26  16  65 S10       30.09F WCI  16
EAGLE          FAIR      14  10  84 E7        30.11F WCI   4
RIFLE          FAIR      22  18  85 CALM      30.09F
DELTA          FAIR      24  16  72 NE5       30.09F WCI  18
NUCLA          FAIR      28  16  59 E9        30.13F WCI  20
$$

COZ017>023-064>068-191300-
...SOUTHWEST COLORADO...

CITY           SKY/WX    TMP DP  RH WIND       PRES   REMARKS
DURANGO        FAIR      19  15  84 E3        30.14F
CORTEZ         FAIR      17  14  88 NE3       30.14F
PAGOSA SPRINGS FAIR      22  15  76 CALM      30.16S
TELLURIDE      FAIR      35  16  46 SE5       30.18S WCI  31
WOLF CREEK PAS FAIR      27   9  46 SW14      30.27S WCI  15
$$

COZ009-010-012-014-032>034-037-058>063-191300-
...CENTRAL COLORADO...

CITY           SKY/WX    TMP DP  RH WIND       PRES   REMARKS
ASPEN          FAIR      21  13  71 SW5       30.06S WCI  15
BUENA VISTA    FAIR      23  10  59 S5        30.05F WCI  16
COPPER MTN     NOT AVBL
BERTHOUD PASS  FAIR      28  18  64 W45G64    30.06F WCI  10
COTTONWOOD PAS   N/A     45  18  33 W9        30.08F
GUNNISON       FAIR       9   6  88 CALM      30.20S
KREMMLING      FAIR      14  10  85 CALM      30.06F
LEADVILLE      FAIR      28  12  51 NE9       30.07F WCI  19
MONARCH PASS   FAIR      27   9  46 W32G39    30.26F WCI  10
SALIDA         FAIR      32  10  39 NW6       30.12S WCI  27
SUNLIGHT       FAIR      27   5  39 SW16G28   30.14F WCI  14
WILKERSON PASS FAIR      30   9  40 SW20G29   30.12F WCI  18
$$

COZ069>075-191300-
...SAN LUIS VALLEY/SANGRE DE CRISTO MOUNTAINS...

CITY           SKY/WX    TMP DP  RH WIND       PRES   REMARKS
ALAMOSA        FAIR       8  -1  66 E3        30.12S
DEL NORTE      FAIR      20   4  48 SW3       30.13S
LA VETA PASS   FAIR      28   3  34 SW32G39     N/A  WCI  12
SAGUACHE       FAIR      23   5  46 CALM      30.14S
$$

COZ035-036-038>040-191300-
...NORTHERN COLORADO FRONT RANGE...

CITY           SKY/WX    TMP DP  RH WIND       PRES   REMARKS
DENVER INTL AP MOCLDY    43  13  29 SW8       29.82F
DMNS CITY PARK NOT AVBL
AURORA         MOCLDY    42  12  29 S8        29.83F
FRONT RANGE AP FAIR      48  13  24 SW8       29.83F
ERIE MUNI ARPT FAIR      34  20  57 S3        29.85F
BOULDER MUN AP FAIR      59  16  18 SW10G17   29.80F
CENTENNIAL     MOCLDY    52   9  17 SW8       29.84S
BROOMFIELD     FAIR      43  16  33 W3        29.83F
FORT COLLINS   FAIR      31  24  75 SW7       29.80F WCI  24
LONGMONT       FAIR      35  24  65 W6        29.82F WCI  29
$$

COZ041-046-047-076>085-087-088-191300-
...PIKES PEAK/PALMER DIVIDE AND SOUTHERN FOOTHILLS...

CITY           SKY/WX    TMP DP  RH WIND       PRES   REMARKS
COLO. SPRINGS  CLOUDY    37  10  32 NW5       29.88F
A. F. ACADEMY  FAIR      41   8  25 SE3       29.87F
SCHRIEVER AFB  FAIR      37   9  30 W3        29.88F
CHEYENNE MTN   MOCLDY    48   9  20 NW5       29.85F
ELLICOTT         N/A    N/A N/A N/A SE3       29.85F
FALCON         FAIR      44   8  22 W5        29.90F
FORT CARSON    CLEAR     34  13  41 N3        29.86F
LIMON          FAIR      21  14  74 N3        29.84F
MONUMENT HILL  FAIR      46  12  25 SW14G20   29.92S
CANON CITY     FAIR      46  14  27 W12       29.88S
WALSENBURG     FAIR      50   7  17 SW22G28   29.91F
TRINIDAD       FAIR      35  10  35 W10       29.91F WCI  27
$$

COZ042>045-048>051-090-091-191300-
...NORTHEAST COLORADO...

CITY           SKY/WX    TMP DP  RH WIND       PRES   REMARKS
GREELEY ARPT   FAIR      25  20  81 S7        29.79F WCI  17
AKRON          FAIR      39  13  34 W14       29.79S
BURLINGTON     FAIR      39  12  33 SW9       29.81F
WRAY           FAIR      37  14  38 W12       29.77F
YUMA           FAIR      36  12  38 SW8       29.77F
STERLING       FAIR      28  19  69 S9        29.78F WCI  20
HOLYOKE        FAIR      36  21  55 W7        29.77S
FORT MORGAN    FAIR      28  17  62 W5        29.80F WCI  23
$$

COZ086-089-092>099-191300-
...SOUTHEAST COLORADO...

CITY           SKY/WX    TMP DP  RH WIND       PRES   REMARKS
PUEBLO         FAIR      24  13  62 W5        29.86F WCI  18
LA JUNTA       FAIR      26  15  63 W12       29.86F WCI  16
LAMAR          FAIR      22  10  60 SW6       29.84F WCI  14
SPRINGFIELD      N/A     23   8  52 SW5       29.85F WCI  17
$$



USA.gov is the U.S. government's official web portal to all federal, state and local government web resources and services.